#datetime,building,power
2023-03-29T00:01:00,pth,3.60
2023-03-29T00:02:00,pth,1.20
2023-03-29T00:04:00,pth,2.40
2023-03-29T00:05:00,pth,1.20
2023-03-29T00:07:00,pth,2.40
2023-03-29T00:09:00,pth,2.40
2023-03-29T00:11:00,pth,2.40
2023-03-29T00:13:00,pth,2.40
2023-03-29T00:15:00,pth,3.60
2023-03-29T00:17:00,pth,4.80
2023-03-29T00:19:00,pth,4.80
2023-03-29T00:21:00,pth,3.60
2023-03-29T00:23:00,pth,4.80
2023-03-29T00:25:00,pth,3.60
2023-03-29T00:27:00,pth,2.40
2023-03-29T00:28:00,pth,1.20
2023-03-29T00:29:00,pth,1.19
2023-03-29T00:31:00,pth,2.40
2023-03-29T00:32:00,pth,1.20
2023-03-29T00:34:00,pth,2.40
2023-03-29T00:36:00,pth,2.40
2023-03-29T00:38:00,pth,3.60
2023-03-29T00:40:00,pth,3.60
2023-03-29T00:42:00,pth,4.80
2023-03-29T00:44:00,pth,3.60
2023-03-29T00:46:00,pth,4.80
2023-03-29T00:48:00,pth,3.60
2023-03-29T00:50:00,pth,2.40
2023-03-29T00:52:00,pth,2.40
2023-03-29T00:54:00,pth,2.40
2023-03-29T00:55:00,pth,1.20
2023-03-29T00:57:00,pth,2.40
2023-03-29T00:59:00,pth,4.80
2023-03-29T01:01:00,pth,3.60
2023-03-29T01:02:00,pth,3.60
2023-03-29T01:04:00,pth,4.80
2023-03-29T01:06:00,pth,4.80
2023-03-29T01:07:00,pth,2.40
2023-03-29T01:09:00,pth,4.80
2023-03-29T01:11:00,pth,3.60
2023-03-29T01:12:00,pth,2.40
2023-03-29T01:13:00,pth,1.20
2023-03-29T01:15:00,pth,2.40
2023-03-29T01:16:00,pth,1.19
2023-03-29T01:18:00,pth,2.40
2023-03-29T01:19:00,pth,1.20
2023-03-29T01:21:00,pth,2.40
2023-03-29T01:22:00,pth,1.19
2023-03-29T01:23:00,pth,1.20
2023-03-29T01:25:00,pth,2.40
2023-03-29T01:26:00,pth,2.40
2023-03-29T01:28:00,pth,4.80
2023-03-29T01:29:00,pth,1.20
2023-03-29T01:31:00,pth,4.80
2023-03-29T01:32:00,pth,2.40
2023-03-29T01:33:00,pth,2.40
2023-03-29T01:35:00,pth,3.60
2023-03-29T01:37:00,pth,2.40
2023-03-29T01:39:00,pth,2.40
2023-03-29T01:41:00,pth,2.40
2023-03-29T01:43:00,pth,2.40
2023-03-29T01:45:00,pth,2.40
2023-03-29T01:47:00,pth,3.60
2023-03-29T01:48:00,pth,2.40
2023-03-29T01:49:00,pth,2.40
2023-03-29T01:51:00,pth,4.80
2023-03-29T01:53:00,pth,3.60
2023-03-29T01:55:00,pth,4.80
2023-03-29T01:57:00,pth,3.60
2023-03-29T01:59:00,pth,2.40
2023-03-29T02:01:00,pth,2.40
2023-03-29T02:03:00,pth,2.40
2023-03-29T02:05:00,pth,2.40
2023-03-29T02:06:00,pth,1.20
2023-03-29T02:08:00,pth,1.20
2023-03-29T02:09:00,pth,1.19
2023-03-29T02:11:00,pth,3.60
2023-03-29T02:13:00,pth,4.80
2023-03-29T02:15:00,pth,3.60
2023-03-29T02:17:00,pth,3.60
2023-03-29T02:19:00,pth,4.80
2023-03-29T02:21:00,pth,3.60
2023-03-29T02:22:00,pth,2.40
2023-03-29T02:24:00,pth,1.20
2023-03-29T02:26:00,pth,2.40
2023-03-29T02:27:00,pth,1.20
2023-03-29T02:29:00,pth,2.40
2023-03-29T02:30:00,pth,1.20
2023-03-29T02:32:00,pth,1.20
2023-03-29T02:33:00,pth,1.19
2023-03-29T02:35:00,pth,3.60
2023-03-29T02:37:00,pth,4.80
2023-03-29T02:38:00,pth,2.40
2023-03-29T02:39:00,pth,2.40
2023-03-29T02:41:00,pth,3.60
2023-03-29T02:43:00,pth,4.80
2023-03-29T02:45:00,pth,4.80
2023-03-29T02:46:00,pth,4.80
2023-03-29T02:47:00,pth,1.20
2023-03-29T02:48:00,pth,2.40
2023-03-29T02:50:00,pth,1.20
2023-03-29T02:52:00,pth,2.40
2023-03-29T02:53:00,pth,1.20
2023-03-29T02:55:00,pth,2.40
2023-03-29T02:57:00,pth,3.60
2023-03-29T02:58:00,pth,2.40
2023-03-29T03:00:00,pth,3.60
2023-03-29T03:02:00,pth,4.80
2023-03-29T03:03:00,pth,2.40
2023-03-29T03:05:00,pth,3.60
2023-03-29T03:07:00,pth,4.80
2023-03-29T03:09:00,pth,2.40
2023-03-29T03:11:00,pth,2.40
2023-03-29T03:13:00,pth,2.40
2023-03-29T03:15:00,pth,1.20
2023-03-29T03:17:00,pth,2.40
2023-03-29T03:19:00,pth,2.40
2023-03-29T03:20:00,pth,2.40
2023-03-29T03:22:00,pth,3.60
2023-03-29T03:24:00,pth,4.80
2023-03-29T03:26:00,pth,3.60
2023-03-29T03:28:00,pth,4.80
2023-03-29T03:30:00,pth,4.80
2023-03-29T03:32:00,pth,3.60
2023-03-29T03:34:00,pth,2.40
2023-03-29T03:36:00,pth,1.20
2023-03-29T03:38:00,pth,2.40
2023-03-29T03:40:00,pth,2.40
2023-03-29T03:41:00,pth,1.19
2023-03-29T03:43:00,pth,3.60
2023-03-29T03:45:00,pth,4.80
2023-03-29T03:47:00,pth,3.60
2023-03-29T03:49:00,pth,3.60
2023-03-29T03:51:00,pth,4.80
2023-03-29T03:53:00,pth,3.60
2023-03-29T03:55:00,pth,4.80
2023-03-29T03:57:00,pth,3.60
2023-03-29T03:58:00,pth,1.20
2023-03-29T04:00:00,pth,3.60
2023-03-29T04:01:00,pth,2.40
2023-03-29T04:02:00,pth,1.20
2023-03-29T04:03:00,pth,2.40
2023-03-29T04:05:00,pth,3.60
2023-03-29T04:07:00,pth,3.60
2023-03-29T04:09:00,pth,4.80
2023-03-29T04:10:00,pth,2.40
2023-03-29T04:12:00,pth,6.00
2023-03-29T04:14:00,pth,4.80
2023-03-29T04:16:00,pth,4.80
2023-03-29T04:18:00,pth,4.80
2023-03-29T04:20:00,pth,6.00
2023-03-29T04:21:00,pth,1.20
2023-03-29T04:23:00,pth,3.60
2023-03-29T04:25:00,pth,2.40
2023-03-29T04:26:00,pth,2.40
2023-03-29T04:28:00,pth,2.40
2023-03-29T04:30:00,pth,3.60
2023-03-29T04:31:00,pth,2.40
2023-03-29T04:33:00,pth,4.80
2023-03-29T04:34:00,pth,2.40
2023-03-29T04:36:00,pth,6.00
2023-03-29T04:38:00,pth,3.60
2023-03-29T04:39:00,pth,2.40
2023-03-29T04:41:00,pth,3.60
2023-03-29T04:43:00,pth,3.60
2023-03-29T04:45:00,pth,1.20
2023-03-29T04:47:00,pth,2.40
2023-03-29T04:49:00,pth,2.40
2023-03-29T04:51:00,pth,2.40
2023-03-29T04:54:00,pth,3.60
2023-03-29T04:55:00,pth,2.40
2023-03-29T04:57:00,pth,3.60
2023-03-29T04:59:00,pth,4.80
2023-03-29T05:00:00,pth,2.40
2023-03-29T05:02:00,pth,3.60
2023-03-29T05:03:00,pth,2.40
2023-03-29T05:04:00,pth,2.40
2023-03-29T05:06:00,pth,3.60
2023-03-29T05:08:00,pth,3.60
2023-03-29T05:10:00,pth,3.60
2023-03-29T05:12:00,pth,1.20
2023-03-29T05:14:00,pth,2.40
2023-03-29T05:16:00,pth,2.40
2023-03-29T05:18:00,pth,3.60
2023-03-29T05:19:00,pth,2.40
2023-03-29T05:21:00,pth,4.80
2023-03-29T05:23:00,pth,4.80
2023-03-29T05:25:00,pth,3.60
2023-03-29T05:27:00,pth,3.60
2023-03-29T05:28:00,pth,2.40
2023-03-29T05:30:00,pth,4.80
2023-03-29T05:33:00,pth,2.40
2023-03-29T05:35:00,pth,2.40
2023-03-29T05:36:00,pth,1.20
2023-03-29T05:38:00,pth,2.40
2023-03-29T05:40:00,pth,1.20
2023-03-29T05:42:00,pth,4.80
2023-03-29T05:43:00,pth,2.40
2023-03-29T05:44:00,pth,1.20
2023-03-29T05:46:00,pth,4.80
2023-03-29T05:48:00,pth,3.60
2023-03-29T05:49:00,pth,2.40
2023-03-29T05:51:00,pth,3.60
2023-03-29T05:52:00,pth,2.40
2023-03-29T05:53:00,pth,2.40
2023-03-29T05:54:00,pth,3.60
2023-03-29T05:56:00,pth,1.20
2023-03-29T05:58:00,pth,3.60
2023-03-29T06:00:00,pth,3.60
2023-03-29T06:02:00,pth,3.60
2023-03-29T06:03:00,pth,1.20
2023-03-29T06:05:00,pth,4.80
2023-03-29T06:06:00,pth,3.60
2023-03-29T06:08:00,pth,4.80
2023-03-29T06:10:00,pth,4.80
2023-03-29T06:12:00,pth,4.80
2023-03-29T06:14:00,pth,3.60
2023-03-29T06:16:00,pth,3.60
2023-03-29T06:18:00,pth,3.60
2023-03-29T06:20:00,pth,2.40
2023-03-29T06:22:00,pth,2.40
2023-03-29T06:24:00,pth,1.19
2023-03-29T06:26:00,pth,2.40
2023-03-29T06:27:00,pth,1.20
2023-03-29T06:29:00,pth,4.80
2023-03-29T06:31:00,pth,4.80
2023-03-29T06:32:00,pth,2.40
2023-03-29T06:34:00,pth,4.80
2023-03-29T06:36:00,pth,6.00
2023-03-29T06:38:00,pth,4.80
2023-03-29T06:39:00,pth,2.40
2023-03-29T06:40:00,pth,2.40
2023-03-29T06:42:00,pth,4.80
2023-03-29T06:44:00,pth,2.40
2023-03-29T06:46:00,pth,3.60
2023-03-29T06:47:00,pth,1.20
2023-03-29T06:49:00,pth,3.60
2023-03-29T06:51:00,pth,3.60
2023-03-29T06:53:00,pth,4.80
2023-03-29T06:54:00,pth,2.40
2023-03-29T06:56:00,pth,4.80
2023-03-29T06:57:00,pth,3.60
2023-03-29T06:59:00,pth,4.80
2023-03-29T07:01:00,pth,4.80
2023-03-29T07:02:00,pth,2.40
2023-03-29T07:04:00,pth,4.80
2023-03-29T07:05:00,pth,2.40
2023-03-29T07:07:00,pth,3.60
2023-03-29T07:09:00,pth,3.60
2023-03-29T07:10:00,pth,1.20
2023-03-29T07:12:00,pth,2.40
2023-03-29T07:14:00,pth,2.40
2023-03-29T07:16:00,pth,3.60
2023-03-29T07:18:00,pth,4.80
2023-03-29T07:19:00,pth,2.40
2023-03-29T07:21:00,pth,4.80
2023-03-29T07:24:00,pth,7.20
2023-03-29T07:26:00,pth,4.80
2023-03-29T07:27:00,pth,2.40
2023-03-29T07:28:00,pth,2.40
2023-03-29T07:30:00,pth,3.60
2023-03-29T07:31:00,pth,1.20
2023-03-29T07:33:00,pth,3.60
2023-03-29T07:35:00,pth,2.40
2023-03-29T07:37:00,pth,2.40
2023-03-29T07:39:00,pth,3.60
2023-03-29T07:40:00,pth,2.40
2023-03-29T07:42:00,pth,4.80
2023-03-29T07:44:00,pth,4.80
2023-03-29T07:46:00,pth,4.80
2023-03-29T07:48:00,pth,4.80
2023-03-29T07:50:00,pth,3.60
2023-03-29T07:51:00,pth,2.40
2023-03-29T07:53:00,pth,4.80
2023-03-29T07:54:00,pth,1.20
2023-03-29T07:55:00,pth,1.19
2023-03-29T07:57:00,pth,2.40
2023-03-29T07:59:00,pth,2.40
2023-03-29T08:01:00,pth,2.40
2023-03-29T08:03:00,pth,2.40
2023-03-29T08:04:00,pth,2.40
2023-03-29T08:06:00,pth,3.60
2023-03-29T08:07:00,pth,2.40
2023-03-29T08:08:00,pth,2.40
2023-03-29T08:10:00,pth,3.60
2023-03-29T08:12:00,pth,4.80
2023-03-29T08:14:00,pth,4.80
2023-03-29T08:16:00,pth,2.40
2023-03-29T08:18:00,pth,2.40
2023-03-29T08:20:00,pth,2.40
2023-03-29T08:22:00,pth,2.40
2023-03-29T08:24:00,pth,2.40
2023-03-29T08:25:00,pth,1.20
2023-03-29T08:27:00,pth,4.80
2023-03-29T08:29:00,pth,3.60
2023-03-29T08:30:00,pth,2.40
2023-03-29T08:32:00,pth,4.80
2023-03-29T08:34:00,pth,3.60
2023-03-29T08:35:00,pth,2.40
2023-03-29T08:37:00,pth,3.60
2023-03-29T08:39:00,pth,2.40
2023-03-29T08:41:00,pth,2.40
2023-03-29T08:42:00,pth,1.20
2023-03-29T08:44:00,pth,2.40
2023-03-29T08:46:00,pth,2.40
2023-03-29T08:47:00,pth,1.20
2023-03-29T08:49:00,pth,3.60
2023-03-29T08:51:00,pth,4.80
2023-03-29T08:53:00,pth,4.80
2023-03-29T08:54:00,pth,2.40
2023-03-29T08:56:00,pth,4.80
2023-03-29T08:58:00,pth,4.80
2023-03-29T09:00:00,pth,3.60
2023-03-29T09:02:00,pth,2.40
2023-03-29T09:04:00,pth,2.40
2023-03-29T09:05:00,pth,1.20
2023-03-29T09:07:00,pth,3.60
2023-03-29T09:08:00,pth,1.20
2023-03-29T09:10:00,pth,2.40
2023-03-29T09:11:00,pth,1.19
2023-03-29T09:12:00,pth,1.20
2023-03-29T09:14:00,pth,3.60
2023-03-29T09:16:00,pth,4.80
2023-03-29T09:18:00,pth,4.80
2023-03-29T09:20:00,pth,4.80
2023-03-29T09:22:00,pth,3.60
2023-03-29T09:23:00,pth,2.40
2023-03-29T09:25:00,pth,3.60
2023-03-29T09:27:00,pth,2.40
2023-03-29T09:29:00,pth,3.60
2023-03-29T09:31:00,pth,2.40
2023-03-29T09:32:00,pth,2.40
2023-03-29T09:34:00,pth,2.40
2023-03-29T09:36:00,pth,3.60
2023-03-29T09:37:00,pth,1.20
2023-03-29T09:38:00,pth,2.40
2023-03-29T09:40:00,pth,6.00
2023-03-29T09:42:00,pth,4.80
2023-03-29T09:44:00,pth,4.80
2023-03-29T09:46:00,pth,4.80
2023-03-29T09:48:00,pth,4.80
2023-03-29T09:49:00,pth,1.19
2023-03-29T09:51:00,pth,2.40
2023-03-29T09:53:00,pth,2.40
2023-03-29T09:54:00,pth,1.20
2023-03-29T09:56:00,pth,2.40
2023-03-29T09:58:00,pth,2.40
2023-03-29T10:00:00,pth,2.40
2023-03-29T10:01:00,pth,1.19
2023-03-29T10:02:00,pth,1.20
2023-03-29T10:04:00,pth,4.80
2023-03-29T10:06:00,pth,4.80
2023-03-29T10:08:00,pth,4.80
2023-03-29T10:10:00,pth,3.60
2023-03-29T10:12:00,pth,4.80
2023-03-29T10:14:00,pth,3.60
2023-03-29T10:16:00,pth,2.40
2023-03-29T10:17:00,pth,1.20
2023-03-29T10:19:00,pth,2.40
2023-03-29T10:20:00,pth,1.20
2023-03-29T10:22:00,pth,2.40
2023-03-29T10:23:00,pth,1.20
2023-03-29T10:24:00,pth,1.20
2023-03-29T10:26:00,pth,3.60
2023-03-29T10:27:00,pth,1.20
2023-03-29T10:29:00,pth,4.80
2023-03-29T10:30:00,pth,2.40
2023-03-29T10:32:00,pth,4.80
2023-03-29T10:33:00,pth,2.40
2023-03-29T10:35:00,pth,4.80
2023-03-29T10:37:00,pth,3.60
2023-03-29T10:38:00,pth,1.20
2023-03-29T10:40:00,pth,3.60
2023-03-29T10:42:00,pth,2.40
2023-03-29T10:44:00,pth,3.60
2023-03-29T10:45:00,pth,1.20
2023-03-29T10:47:00,pth,2.40
2023-03-29T10:48:00,pth,1.19
2023-03-29T10:50:00,pth,3.60
2023-03-29T10:51:00,pth,1.20
2023-03-29T10:52:00,pth,2.40
2023-03-29T10:54:00,pth,4.80
2023-03-29T10:55:00,pth,2.40
2023-03-29T10:57:00,pth,6.01
2023-03-29T10:59:00,pth,4.80
2023-03-29T11:00:00,pth,2.40
2023-03-29T11:02:00,pth,3.60
2023-03-29T11:04:00,pth,3.60
2023-03-29T11:06:00,pth,2.40
2023-03-29T11:08:00,pth,2.40
2023-03-29T11:10:00,pth,2.40
2023-03-29T11:12:00,pth,3.60
2023-03-29T11:14:00,pth,2.40
2023-03-29T11:16:00,pth,2.40
2023-03-29T11:17:00,pth,2.40
2023-03-29T11:19:00,pth,3.60
2023-03-29T11:21:00,pth,4.80
2023-03-29T11:22:00,pth,2.40
2023-03-29T11:24:00,pth,4.80
2023-03-29T11:26:00,pth,4.80
2023-03-29T11:28:00,pth,2.40
2023-03-29T11:30:00,pth,2.40
2023-03-29T11:32:00,pth,1.20
2023-03-29T11:34:00,pth,1.20
2023-03-29T11:36:00,pth,2.40
2023-03-29T11:39:00,pth,1.20
2023-03-29T11:41:00,pth,2.40
2023-03-29T11:43:00,pth,2.40
2023-03-29T11:45:00,pth,4.80
2023-03-29T11:46:00,pth,2.40
2023-03-29T11:48:00,pth,3.60
2023-03-29T11:49:00,pth,1.20
2023-03-29T11:51:00,pth,3.60
2023-03-29T11:52:00,pth,1.20
2023-03-29T11:54:00,pth,4.80
2023-03-29T11:56:00,pth,3.60
2023-03-29T11:58:00,pth,4.80
2023-03-29T11:59:00,pth,2.40
2023-03-29T12:01:00,pth,1.20
2023-03-29T12:03:00,pth,1.20
2023-03-29T12:05:00,pth,2.40
2023-03-29T12:07:00,pth,1.19
2023-03-29T12:09:00,pth,3.60
2023-03-29T12:10:00,pth,2.40
2023-03-29T12:12:00,pth,3.60
2023-03-29T12:14:00,pth,3.60
2023-03-29T12:16:00,pth,2.40
2023-03-29T12:18:00,pth,2.40
2023-03-29T12:19:00,pth,2.40
2023-03-29T12:21:00,pth,2.40
2023-03-29T12:23:00,pth,2.40
2023-03-29T12:25:00,pth,1.20
2023-03-29T12:27:00,pth,2.40
2023-03-29T12:29:00,pth,2.40
2023-03-29T12:32:00,pth,2.40
2023-03-29T12:34:00,pth,3.60
2023-03-29T12:35:00,pth,2.40
2023-03-29T12:36:00,pth,2.40
2023-03-29T12:38:00,pth,3.60
2023-03-29T12:40:00,pth,3.60
2023-03-29T12:42:00,pth,2.40
2023-03-29T12:44:00,pth,2.40
2023-03-29T12:46:00,pth,2.40
2023-03-29T12:48:00,pth,1.20
2023-03-29T12:50:00,pth,1.20
2023-03-29T12:52:00,pth,1.19
2023-03-29T12:54:00,pth,2.40
2023-03-29T12:55:00,pth,1.20
2023-03-29T12:57:00,pth,1.20
2023-03-29T12:59:00,pth,1.20
2023-03-29T13:01:00,pth,3.60
2023-03-29T13:03:00,pth,3.60
2023-03-29T13:05:00,pth,3.60
2023-03-29T13:07:00,pth,2.40
2023-03-29T13:09:00,pth,2.40
2023-03-29T13:12:00,pth,2.40
2023-03-29T13:15:00,pth,2.40
2023-03-29T13:17:00,pth,1.20
2023-03-29T13:18:00,pth,1.20
2023-03-29T13:20:00,pth,2.40
2023-03-29T13:23:00,pth,2.40
2023-03-29T13:25:00,pth,3.60
2023-03-29T13:27:00,pth,2.40
2023-03-29T13:29:00,pth,3.60
2023-03-29T13:31:00,pth,4.80
2023-03-29T13:33:00,pth,2.40
2023-03-29T13:36:00,pth,2.40
2023-03-29T13:39:00,pth,2.40
2023-03-29T13:41:00,pth,1.20
2023-03-29T13:43:00,pth,1.20
2023-03-29T13:45:00,pth,1.20
2023-03-29T13:46:00,pth,1.19
2023-03-29T13:48:00,pth,1.20
2023-03-29T13:50:00,pth,1.20
2023-03-29T13:52:00,pth,1.20
2023-03-29T13:53:00,pth,1.20
2023-03-29T13:55:00,pth,3.60
2023-03-29T13:57:00,pth,2.40
2023-03-29T13:59:00,pth,3.60
2023-03-29T14:01:00,pth,2.40
2023-03-29T14:02:00,pth,1.20
2023-03-29T14:04:00,pth,1.20
2023-03-29T14:06:00,pth,1.20
2023-03-29T14:08:00,pth,1.20
2023-03-29T14:10:00,pth,1.19
2023-03-29T14:14:00,pth,1.20
2023-03-29T14:16:00,pth,2.40
2023-03-29T14:18:00,pth,1.20
2023-03-29T14:19:00,pth,1.20
2023-03-29T14:21:00,pth,2.40
2023-03-29T14:23:00,pth,3.60
2023-03-29T14:24:00,pth,1.20
2023-03-29T14:26:00,pth,3.60
2023-03-29T14:27:00,pth,1.20
2023-03-29T14:29:00,pth,1.20
2023-03-29T14:31:00,pth,1.20
2023-03-29T14:33:00,pth,2.40
2023-03-29T14:35:00,pth,1.20
2023-03-29T14:38:00,pth,1.20
2023-03-29T14:40:00,pth,1.20
2023-03-29T14:42:00,pth,1.20
2023-03-29T14:44:00,pth,2.40
2023-03-29T14:45:00,pth,1.20
2023-03-29T14:47:00,pth,1.20
2023-03-29T14:49:00,pth,2.40
2023-03-29T14:51:00,pth,3.60
2023-03-29T14:53:00,pth,3.60
2023-03-29T14:55:00,pth,3.60
2023-03-29T14:58:00,pth,2.40
2023-03-29T15:00:00,pth,1.20
2023-03-29T15:02:00,pth,1.20
2023-03-29T15:04:00,pth,1.20
2023-03-29T15:05:00,pth,1.19
2023-03-29T15:07:00,pth,1.20
2023-03-29T15:09:00,pth,1.20
2023-03-29T15:11:00,pth,2.40
2023-03-29T15:14:00,pth,1.20
2023-03-29T15:15:00,pth,1.19
2023-03-29T15:17:00,pth,2.40
2023-03-29T15:19:00,pth,3.60
2023-03-29T15:21:00,pth,3.60
2023-03-29T15:23:00,pth,2.40
2023-03-29T15:25:00,pth,1.20
2023-03-29T15:27:00,pth,1.19
2023-03-29T15:29:00,pth,2.40
2023-03-29T15:31:00,pth,1.20
2023-03-29T15:33:00,pth,1.20
2023-03-29T15:34:00,pth,1.20
2023-03-29T15:36:00,pth,1.20
2023-03-29T15:38:00,pth,1.19
2023-03-29T15:40:00,pth,1.20
2023-03-29T15:42:00,pth,1.20
2023-03-29T15:44:00,pth,2.40
2023-03-29T15:45:00,pth,1.20
2023-03-29T15:47:00,pth,3.60
2023-03-29T15:48:00,pth,2.40
2023-03-29T15:50:00,pth,3.60
2023-03-29T15:52:00,pth,2.40
2023-03-29T15:54:00,pth,1.20
2023-03-29T15:56:00,pth,1.20
2023-03-29T15:58:00,pth,2.40
2023-03-29T16:00:00,pth,1.20
2023-03-29T16:02:00,pth,1.20
2023-03-29T16:05:00,pth,1.20
2023-03-29T16:07:00,pth,1.20
2023-03-29T16:09:00,pth,1.20
2023-03-29T16:11:00,pth,2.40
2023-03-29T16:14:00,pth,2.40
2023-03-29T16:16:00,pth,3.60
2023-03-29T16:18:00,pth,3.60
2023-03-29T16:20:00,pth,2.40
2023-03-29T16:22:00,pth,2.40
2023-03-29T16:24:00,pth,1.20
2023-03-29T16:26:00,pth,1.20
2023-03-29T16:27:00,pth,1.20
2023-03-29T16:29:00,pth,1.20
2023-03-29T16:30:00,pth,1.19
2023-03-29T16:32:00,pth,2.40
2023-03-29T16:34:00,pth,1.20
2023-03-29T16:36:00,pth,2.40
2023-03-29T16:38:00,pth,1.20
2023-03-29T16:40:00,pth,1.19
2023-03-29T16:42:00,pth,1.20
2023-03-29T16:43:00,pth,1.20
2023-03-29T16:45:00,pth,2.40
2023-03-29T16:47:00,pth,3.60
2023-03-29T16:48:00,pth,1.20
2023-03-29T16:50:00,pth,3.60
2023-03-29T16:52:00,pth,2.40
2023-03-29T16:54:00,pth,1.20
2023-03-29T16:56:00,pth,1.20
2023-03-29T16:59:00,pth,1.20
2023-03-29T17:01:00,pth,1.20
2023-03-29T17:02:00,pth,1.19
2023-03-29T17:04:00,pth,1.20
2023-03-29T17:06:00,pth,2.40
2023-03-29T17:09:00,pth,1.20
2023-03-29T17:10:00,pth,1.20
2023-03-29T17:13:00,pth,1.20
2023-03-29T17:14:00,pth,1.19
2023-03-29T17:16:00,pth,2.40
2023-03-29T17:17:00,pth,2.40
2023-03-29T17:19:00,pth,3.60
2023-03-29T17:20:00,pth,1.20
2023-03-29T17:22:00,pth,3.60
2023-03-29T17:25:00,pth,2.40
2023-03-29T17:27:00,pth,1.20
2023-03-29T17:29:00,pth,1.20
2023-03-29T17:31:00,pth,2.40
2023-03-29T17:32:00,pth,2.40
2023-03-29T17:34:00,pth,4.80
2023-03-29T17:36:00,pth,3.60
2023-03-29T17:38:00,pth,4.80
2023-03-29T17:40:00,pth,2.40
2023-03-29T17:43:00,pth,1.20
2023-03-29T17:44:00,pth,1.20
2023-03-29T17:45:00,pth,1.20
2023-03-29T17:47:00,pth,3.60
2023-03-29T17:49:00,pth,6.00
2023-03-29T17:50:00,pth,3.60
2023-03-29T17:52:00,pth,6.00
2023-03-29T17:53:00,pth,2.40
2023-03-29T17:55:00,pth,4.80
2023-03-29T17:56:00,pth,1.20
2023-03-29T17:57:00,pth,2.40
2023-03-29T17:59:00,pth,2.40
2023-03-29T18:01:00,pth,3.60
2023-03-29T18:03:00,pth,3.60
2023-03-29T18:05:00,pth,3.60
2023-03-29T18:06:00,pth,1.20
2023-03-29T18:07:00,pth,1.20
2023-03-29T18:09:00,pth,2.40
2023-03-29T18:11:00,pth,2.40
2023-03-29T18:13:00,pth,2.40
2023-03-29T18:15:00,pth,2.40
2023-03-29T18:16:00,pth,1.20
2023-03-29T18:18:00,pth,3.60
2023-03-29T18:20:00,pth,3.60
2023-03-29T18:21:00,pth,2.40
2023-03-29T18:23:00,pth,6.00
2023-03-29T18:25:00,pth,4.80
2023-03-29T18:27:00,pth,3.60
2023-03-29T18:29:00,pth,3.60
2023-03-29T18:30:00,pth,1.19
2023-03-29T18:32:00,pth,3.60
2023-03-29T18:34:00,pth,2.40
2023-03-29T18:35:00,pth,2.40
2023-03-29T18:37:00,pth,2.40
2023-03-29T18:39:00,pth,2.40
2023-03-29T18:40:00,pth,2.40
2023-03-29T18:42:00,pth,2.40
2023-03-29T18:44:00,pth,2.40
2023-03-29T18:46:00,pth,3.60
2023-03-29T18:48:00,pth,3.60
2023-03-29T18:50:00,pth,3.60
2023-03-29T18:51:00,pth,1.20
2023-03-29T18:53:00,pth,6.00
2023-03-29T18:55:00,pth,6.00
2023-03-29T18:56:00,pth,2.40
2023-03-29T18:57:00,pth,3.60
2023-03-29T18:59:00,pth,4.80
2023-03-29T19:00:00,pth,2.40
2023-03-29T19:02:00,pth,3.60
2023-03-29T19:03:00,pth,1.20
2023-03-29T19:05:00,pth,3.60
2023-03-29T19:06:00,pth,2.40
2023-03-29T19:08:00,pth,4.80
2023-03-29T19:10:00,pth,2.40
2023-03-29T19:11:00,pth,2.40
2023-03-29T19:13:00,pth,3.60
2023-03-29T19:14:00,pth,2.40
2023-03-29T19:16:00,pth,3.60
2023-03-29T19:18:00,pth,4.80
2023-03-29T19:20:00,pth,4.80
2023-03-29T19:22:00,pth,3.60
2023-03-29T19:24:00,pth,3.60
2023-03-29T19:26:00,pth,3.60
2023-03-29T19:28:00,pth,4.80
2023-03-29T19:29:00,pth,1.20
2023-03-29T19:31:00,pth,4.80
2023-03-29T19:32:00,pth,2.40
2023-03-29T19:34:00,pth,2.40
2023-03-29T19:36:00,pth,2.40
2023-03-29T19:38:00,pth,2.40
2023-03-29T19:40:00,pth,3.60
2023-03-29T19:42:00,pth,3.60
2023-03-29T19:44:00,pth,3.60
2023-03-29T19:46:00,pth,2.40
2023-03-29T19:47:00,pth,1.19
2023-03-29T19:49:00,pth,2.40
2023-03-29T19:51:00,pth,2.40
2023-03-29T19:53:00,pth,2.40
2023-03-29T19:55:00,pth,3.60
2023-03-29T19:56:00,pth,1.20
2023-03-29T19:57:00,pth,2.40
2023-03-29T19:59:00,pth,4.80
2023-03-29T20:01:00,pth,4.80
2023-03-29T20:02:00,pth,2.40
2023-03-29T20:04:00,pth,2.40
2023-03-29T20:05:00,pth,1.19
2023-03-29T20:06:00,pth,1.20
2023-03-29T20:08:00,pth,2.40
2023-03-29T20:10:00,pth,2.40
2023-03-29T20:11:00,pth,1.19
2023-03-29T20:13:00,pth,3.60
2023-03-29T20:15:00,pth,2.40
2023-03-29T20:17:00,pth,2.40
2023-03-29T20:18:00,pth,2.40
2023-03-29T20:20:00,pth,6.00
2023-03-29T20:22:00,pth,15.60
2023-03-29T20:24:00,pth,15.60
2023-03-29T20:26:00,pth,15.60
2023-03-29T20:27:00,pth,8.40
2023-03-29T20:29:00,pth,15.60
2023-03-29T20:30:00,pth,7.20
2023-03-29T20:32:00,pth,15.60
2023-03-29T20:34:00,pth,15.60
2023-03-29T20:36:00,pth,14.40
2023-03-29T20:38:00,pth,15.60
2023-03-29T20:40:00,pth,15.60
2023-03-29T20:42:00,pth,15.59
2023-03-29T20:44:00,pth,15.60
2023-03-29T20:46:00,pth,15.60
2023-03-29T20:48:00,pth,15.60
2023-03-29T20:49:00,pth,7.20
2023-03-29T20:51:00,pth,15.60
2023-03-29T20:53:00,pth,14.40
2023-03-29T20:54:00,pth,8.40
2023-03-29T20:56:00,pth,15.60
2023-03-29T20:57:00,pth,7.20
2023-03-29T20:59:00,pth,15.60
2023-03-29T21:00:00,pth,7.20
2023-03-29T21:02:00,pth,15.60
2023-03-29T21:03:00,pth,7.20
2023-03-29T21:05:00,pth,15.60
2023-03-29T21:07:00,pth,14.40
2023-03-29T21:08:00,pth,8.40
2023-03-29T21:10:00,pth,14.40
2023-03-29T21:12:00,pth,14.40
2023-03-29T21:13:00,pth,8.40
2023-03-29T21:15:00,pth,14.40
2023-03-29T21:16:00,pth,7.20
2023-03-29T21:18:00,pth,16.80
2023-03-29T21:19:00,pth,4.80
2023-03-29T21:21:00,pth,6.00
2023-03-29T21:23:00,pth,7.20
2023-03-29T21:24:00,pth,2.40
2023-03-29T21:26:00,pth,4.80
2023-03-29T21:28:00,pth,3.60
2023-03-29T21:30:00,pth,2.40
2023-03-29T21:31:00,pth,2.40
2023-03-29T21:33:00,pth,3.60
2023-03-29T21:35:00,pth,4.80
2023-03-29T21:37:00,pth,3.60
2023-03-29T21:38:00,pth,1.20
2023-03-29T21:40:00,pth,3.60
2023-03-29T21:42:00,pth,4.80
2023-03-29T21:44:00,pth,3.60
2023-03-29T21:46:00,pth,4.80
2023-03-29T21:48:00,pth,3.60
2023-03-29T21:50:00,pth,3.60
2023-03-29T21:51:00,pth,1.20
2023-03-29T21:53:00,pth,3.60
2023-03-29T21:55:00,pth,6.00
2023-03-29T21:57:00,pth,6.00
2023-03-29T21:59:00,pth,6.00
2023-03-29T22:00:00,pth,7.20
2023-03-29T22:02:00,pth,16.80
2023-03-29T22:03:00,pth,8.40
2023-03-29T22:05:00,pth,18.00
2023-03-29T22:06:00,pth,9.59
2023-03-29T22:08:00,pth,16.80
2023-03-29T22:10:00,pth,16.80
2023-03-29T22:12:00,pth,18.00
2023-03-29T22:14:00,pth,16.80
2023-03-29T22:16:00,pth,16.80
2023-03-29T22:18:00,pth,18.00
2023-03-29T22:20:00,pth,16.79
2023-03-29T22:21:00,pth,9.60
2023-03-29T22:23:00,pth,16.80
2023-03-29T22:25:00,pth,20.40
2023-03-29T22:27:00,pth,19.20
2023-03-29T22:28:00,pth,9.59
2023-03-29T22:30:00,pth,18.00
2023-03-29T22:32:00,pth,19.20
2023-03-29T22:34:00,pth,18.00
2023-03-29T22:36:00,pth,18.00
2023-03-29T22:38:00,pth,16.80
2023-03-29T22:39:00,pth,8.40
2023-03-29T22:40:00,pth,8.40
2023-03-29T22:42:00,pth,16.80
2023-03-29T22:43:00,pth,3.60
2023-03-29T22:45:00,pth,12.00
2023-03-29T22:47:00,pth,15.60
2023-03-29T22:49:00,pth,10.80
2023-03-29T22:51:00,pth,12.00
2023-03-29T22:53:00,pth,16.79
2023-03-29T22:54:00,pth,4.80
2023-03-29T22:56:00,pth,8.40
2023-03-29T22:57:00,pth,8.39
2023-03-29T22:59:00,pth,12.00
2023-03-29T23:00:00,pth,2.40
2023-03-29T23:02:00,pth,6.00
2023-03-29T23:03:00,pth,2.40
2023-03-29T23:05:00,pth,4.80
2023-03-29T23:07:00,pth,6.00
2023-03-29T23:09:00,pth,4.80
2023-03-29T23:11:00,pth,3.60
2023-03-29T23:12:00,pth,1.20
2023-03-29T23:14:00,pth,2.40
2023-03-29T23:16:00,pth,2.40
2023-03-29T23:18:00,pth,3.60
2023-03-29T23:19:00,pth,1.19
2023-03-29T23:21:00,pth,3.60
2023-03-29T23:22:00,pth,1.20
2023-03-29T23:24:00,pth,3.60
2023-03-29T23:26:00,pth,2.40
2023-03-29T23:27:00,pth,1.20
2023-03-29T23:29:00,pth,3.60
2023-03-29T23:31:00,pth,3.60
2023-03-29T23:33:00,pth,2.40
2023-03-29T23:34:00,pth,2.40
2023-03-29T23:35:00,pth,2.40
2023-03-29T23:37:00,pth,4.80
2023-03-29T23:39:00,pth,3.60
2023-03-29T23:40:00,pth,2.40
2023-03-29T23:41:00,pth,2.40
2023-03-29T23:43:00,pth,2.40
2023-03-29T23:45:00,pth,3.60
2023-03-29T23:46:00,pth,1.20
2023-03-29T23:48:00,pth,3.60
2023-03-29T23:50:00,pth,2.40
2023-03-29T23:52:00,pth,3.60
